Regional Weather Roundup
Issued by NWS

Home | Current Version | Previous Version | Text Only | Print | Product List | Glossary Off
Versions: 1 2 3 4 5 6 7 8 9 10 11 12 13 14 15 16 17 18 19 20 21 22 23 24 25 26 27 28 29 30 31 32 33 34 35 36 37 38 39 40 41 42 43 44 45 46 47 48 49 50

000
ASUS43 KDMX 210007
RWRIA

WEATHER ROUNDUP FOR IOWA
NATIONAL WEATHER SERVICE DES MOINES IA
700 PM CDT MON APR 20 2015

NOTE: "FAIR" INDICATES FEW OR NO CLOUDS BELOW 12,000 FEET WITH NO
SIGNIFICANT WEATHER AND/OR OBSTRUCTIONS TO VISIBILITY.

* - THESE STATIONS ARE NOT NWS STATIONS...THUS NOT UNDER NWS
QUALITY CONTROL.  THEY ALSO DO NOT REPORT WEATHER SUCH
AS PRECIPITATION OR FOG.

IAZ001>003-012>014-020>022-031>034-043>046-210100-
   NORTHWEST IOWA

CITY           SKY/WX    TMP DP  RH WIND       PRES   REMARKS
CARROLL *      SUNNY     52  12  20 NW21G32   29.69R
CHEROKEE *     SUNNY     52  12  20 NW22G30   29.68S
DENISON *      SUNNY     52   9  17 NW24G31   29.69S
LE MARS *      SUNNY     54   5  14 NW29G37   29.71R
ORANGE CITY *  SUNNY     50  12  22 NW25G33   29.68R
SHELDON *      PTSUNNY   50  23  34 NW30G40   29.65R
SIOUX CITY     SUNNY     55   9  16 NW26G38   29.70R
6HR MIN TEMP:  53; 6HR MAX TEMP:  58; 6HR PCP: TRACE;

SPENCER        PTSUNNY   51  23  33 NW24G35   29.65S
6HR MIN TEMP:  49; 6HR MAX TEMP:  54;

STORM LAKE *   SUNNY     50  12  22 NW24G38   29.68R
$$

IAZ055>058-069>071-079>083-090>094-210100-
   SOUTHWEST IOWA

CITY           SKY/WX    TMP DP  RH WIND       PRES   REMARKS
ATLANTIC *     SUNNY     54  12  19 NW22G30   29.73S
AUDUBON *      SUNNY     54   0  11 NW15G26   29.72R
CLARINDA *     MOSUNNY   55  23  28 NW20G26   29.78S
COUNCIL BLFS * SUNNY     54  19  26 NW14G35   29.75S
CRESTON *      MOSUNNY   52  18  25 NW24G32   29.73S
HARLAN  *      SUNNY     54  14  20 NW28G37   29.75S
LAMONI         MOSUNNY   54  24  31 NW21      29.74R
6HR MIN TEMP:  50; 6HR MAX TEMP:  57;

RED OAK *      MOSUNNY   54  19  26 NW15G24   29.75S
SHENANDOAH *   MOSUNNY   55  23  28 NW13G22   29.78S
$$

IAZ047>049-059>061-072>074-084-210100-
   CENTRAL IOWA

CITY           SKY/WX    TMP DP  RH WIND       PRES   REMARKS
AMES           MOSUNNY   52  19  27 NW22G33   29.66R
6HR MIN TEMP:  47; 6HR MAX TEMP:  54;

ANKENY *       SUNNY     54  14  20 NW24G32   29.67R
CHARITON *     PTCLDY    54  21  28 W23       29.71S
DES MOINES     MOSUNNY   55  11  17 NW22G33   29.68S
6HR MIN TEMP:  49; 6HR MAX TEMP:  57;

GRINNELL*      PTCLDY    52  25  35 W15       29.66S
KNOXVILLE *    PTCLDY    54  19  26 W22G31    29.67S
MARSHALLTOWN   MOCLDY    50  34  54 NW15      29.64R
6HR MIN TEMP:  44; 6HR MAX TEMP:  51; 6HR PCP: TRACE;

PELLA *        PTCLDY    53  24  32 NW20G32   29.69R
PERRY *          N/A     52  21  30 NW17G23   29.69R
$$

IAZ004>006-015-016-023>025-035-036-210100-
   NORTH CENTRAL IOWA

CITY           SKY/WX    TMP DP  RH WIND       PRES   REMARKS
ALGONA *       SUNNY     45  32  61 NW15      29.65S
CLARION *      MOSUNNY   46  32  57 NW28      29.65R
ESTHERVILLE    MOSUNNY   45  28  51 NW23G30   29.65R
6HR MIN TEMP:  44; 6HR MAX TEMP:  48;

FORT DODGE *   SUNNY     48  28  46 NW10G20   29.67R
MASON CITY     CLOUDY    41  31  67 NW23      29.65R
6HR MIN TEMP:  38; 6HR MAX TEMP:  45; 6HR PCP: TRACE;

FOREST CITY *  CLOUDY    39  32  75 NW15G23   29.64S WCI  31
IOWA FALLS *   PTSUNNY   46  36  66 NW14      29.66R
$$

IAZ007>011-017>019-026>030-037>042-050>054-066-210100-
   NORTHEAST IOWA

CITY           SKY/WX    TMP DP  RH WIND       PRES   REMARKS
CEDAR RAPIDS   PTCLDY    47  38  71 NW14      29.64S
6HR MIN TEMP:  40; 6HR MAX TEMP:  49; 6HR PCP:  0.07;

CHARLES CITY * CLOUDY    41  36  81 NW15G28   29.63R
CLINTON *      MOCLDY    45  34  65 NW24G43   29.66R
DECORAH *      CLOUDY    41  30  65 W9G18     29.57S
DUBUQUE        CLOUDY    44  32  62 W18G28    29.61R
6HR MIN TEMP:  42; 6HR MAX TEMP:  47;

MONTICELLO *   CLOUDY    45  37  76 W14G21    29.62S
OELWEIN *      MOCLDY    43  34  70 NW22G31   29.62R
WATERLOO       PTCLDY    45  31  58 NW22      29.63R
6HR MIN TEMP:  43; 6HR MAX TEMP:  50;

$$

IAZ064-065-067-068-078-210100-
   EAST CENTRAL IOWA

CITY           SKY/WX    TMP DP  RH WIND       PRES   REMARKS
DAVENPORT      LGT RAIN  42  35  76 W18G40    29.66R
6HR MIN TEMP:  42; 6HR MAX TEMP:  49; 6HR PCP:  0.02;

IOWA CITY      CLOUDY    49  34  56 NW12      29.66R
6HR MIN TEMP:  45; 6HR MAX TEMP:  52; 6HR PCP: TRACE;

MT. PLEASANT * PTCLDY    51  27  39 W12G23    29.70R
MUSCATINE *    MOCLDY    52  27  37 W21G28    29.67R
QUAD CITIES    MOCLDY    48  33  56 W14       29.65R
6HR MIN TEMP:  45; 6HR MAX TEMP:  52; 6HR PCP: TRACE;

$$

IAZ062-063-075>077-085>089-095>099-210100-
   SOUTHEAST IOWA

CITY           SKY/WX    TMP DP  RH WIND       PRES   REMARKS
BURLINGTON     MOCLDY    52  29  41 W15G23    29.69R
6HR MIN TEMP:  47; 6HR MAX TEMP:  52;

FAIRFIELD *    PTCLDY    52  27  37 W16       29.69R
FORT MADISON * PTCLDY    52  27  37 W13G20    29.71R
KEOKUK *       MOCLDY    54  27  35 W18G28    29.71S
OSKALOOSA *    CLOUDY    51  27  39 W26       29.68S
CENTERVILLE *  PTCLDY    52  32  46 W16       29.73S
OTTUMWA        MOCLDY    52  23  32 W17G24    29.68S
6HR MIN TEMP:  46; 6HR MAX TEMP:  55;

WASHINGTON *   PTCLDY    52  27  37 W17G29    29.67S
$$

ABBREVIATIONS USED IN REMARKS
   TC - TEMPERATURES IN CELSIUS
  WCI - WIND CHILL INDEX
   HX - HEAT INDEX
  VSB - VISIBILITY
$$




USA.gov is the U.S. government's official web portal to all federal, state and local government web resources and services.